Regional Weather Roundup
Issued by NWS Upton, NY

Current Version | Previous Version | Text Only | Print | Product List | Glossary On
Versions: 1 2 3 4 5 6 7 8 9 10 11 12 13 14 15 16 17 18 19 20 21 22 23 24 25 26 27 28 29 30 31 32 33 34 35 36 37 38 39 40 41 42 43 44 45 46 47
000
ASUS41 KOKX 211805
RWROKX

REGIONAL WEATHER ROUNDUP
NATIONAL WEATHER SERVICE NEW YORK NY
100 PM EST SUN DEC 21 2014

NOTE: "FAIR" INDICATES FEW OR NO CLOUDS BELOW 12,000 FEET WITH NO
SIGNIFICANT WEATHER AND/OR OBSTRUCTIONS TO VISIBILITY.

NYZ071-072-176-178-NJZ106-104-211900-
NEW YORK CITY METRO AREA


CITY           SKY/WX    TMP DP  RH WIND       PRES   REMARKS
CENTRAL PARK   CLOUDY    34  25  69 NW7       30.31F WCI  28
LAGUARDIA APRT PTSUNNY   34  27  75 NW8       30.29F WCI  27
KENNEDY INTL   CLOUDY    36  27  69 NW10      30.30F WCI  28
NEWARK/LIBERTY CLOUDY    35  27  72 NW9       30.29F WCI  28
BRNX BOT. GARD   N/A    N/A N/A N/A NW5       30.29F
TETERBORO      CLOUDY    34  27  75 N6        30.29F WCI  29
$$

NYZ177-179-078>081-211900-
LONG ISLAND NEW YORK

CITY           SKY/WX    TMP DP  RH WIND       PRES   REMARKS
FARMINGDALE    CLOUDY    36  29  75 N9        30.27F WCI  29
ISLIP          CLOUDY    36  31  82 N9        30.25F WCI  29
SHIRLEY        MIX PCPN  36  34  92 N8        30.27S FOG     WCI  30
WESTHAMPTON    LGT RAIN  36  33  89 NW10      30.27S FOG     WCI  28
MONTAUK POINT    N/A     40  37  89 NE10G20   30.23S WCI  33
$$

NYZ052-065-067-211900-
HUDSON VALLEY

CITY           SKY/WX    TMP DP  RH WIND       PRES   REMARKS
WHITE PLAINS   LGT SNOW  32  29  88 NW9       30.26S VSB 1   WCI  24
NEWBURGH       CLOUDY    32  28  86 CALM      30.30F FOG
MONTGOMERY     CLOUDY    32  27  81 CALM      30.28F
POUGHKEEPSIE   CLOUDY    32  27  81 N5        30.30F WCI  27
ALBANY         FLURRIES  30  23  75 N5        30.32F WCI  25
$$

NJZ001-105-106-008-010-013-015-019>022-104-211900-
NEW JERSEY

CITY           SKY/WX    TMP DP  RH WIND       PRES   REMARKS
NEWARK/LIBERTY CLOUDY    35  27  72 NW9       30.29F WCI  28
TETERBORO      CLOUDY    34  27  75 N6        30.29F WCI  29
CALDWELL       CLOUDY    34  26  72 NE5       30.29F WCI  30
MORRISTOWN     CLOUDY    36  27  69 N8        30.29F WCI  29
SOMERVILLE     CLOUDY    36  25  64 N5        30.28F WCI  32
SUSSEX         CLOUDY    33  27  78 CALM      30.28F
ANDOVER          N/A     33  25  72 VRB3      30.28F
TRENTON        CLOUDY    36  23  59 N6        30.29F WCI  31
MILLVILLE      SUNNY     39  22  50 NW8       30.30F WCI  33
ATLANTIC CITY  SUNNY     41  22  46 NW12      30.29F
WRIGHTSTOWN    MOSUNNY   39  24  55 NW9       30.27F WCI  33
TOMS RIVER     MOSUNNY   37  25  60 N12       30.29F WCI  30
BELMAR         CLOUDY    36  23  60 NW9       30.28F WCI  29
$$

PAZ047>061-062-071-211900-
EASTERN PENNSYLVANIA

CITY           SKY/WX    TMP DP  RH WIND       PRES   REMARKS
PHILADELPHIA   MOSUNNY   39  22  50 NW9       30.31F WCI  33
ALLENTOWN      CLOUDY    34  21  59 N5        30.30F WCI  30
SCRANTON       CLOUDY    31  19  61 VRB5      30.28S WCI  26
$$

CTZ002-004>006-009-010-012-RIZ004-006-007-MAZ004-011-015-211900-
SOUTHERN NEW ENGLAND
 IN CT

CITY           SKY/WX    TMP DP  RH WIND       PRES   REMARKS
BRADLEY INTL   LGT SNOW  33  29  85 N8        30.28F FOG     WCI  26
HARTFORD       LGT SNOW  33  31  92 VRB7      30.29F FOG     WCI  27
DANBURY        CLOUDY    33  28  81 NW5       30.28S HAZE    WCI  29
WTRBRY/OXFORD  CLOUDY    34  25  69 N7        30.25F WCI  28
BRIDGEPORT     MIX PCPN  37  34  89 N7        30.27F FOG     WCI  32
MERIDEN        CLOUDY    34  30  85 N9        30.28F WCI  27
NEW HAVEN      LGT SNOW  36  31  82 N6        30.27F VSB 1   WCI  31
CHESTER        LGT SNOW  34  32  93 N6        30.25F WCI  29
GROTON         CLOUDY    38  34  85 N8        30.24F WCI  32
WILLIMANTIC    CLOUDY    35  31  85 NE5       30.27F WCI  31

 IN RI

CITY           SKY/WX    TMP DP  RH WIND       PRES   REMARKS
PROVIDENCE     LGT SNOW  33  31  92 N10       30.27F FOG     WCI  25
BLOCK ISLAND   CLOUDY    37  34  87 NE13G22   30.22F WCI  29
WESTERLY       CLOUDY    39  33  79 N8        30.25S WCI  33

 IN MA

CITY           SKY/WX    TMP DP  RH WIND       PRES   REMARKS
BOSTON         FLURRIES  32  26  78 N7        30.31S WCI  26
WORCESTER      LGT SNOW  29  27  92 N6        30.25S FOG     WCI  23
WESTFIELD      LGT SNOW  33  29  85 N8        30.29S FOG     WCI  26
PROVINCETOWN   CLOUDY    43  34  70 NE8       30.26F
NANTUCKET      CLOUDY    45  33  63 NE10      30.23F
$$

ANZ330-335-338-340-345-350-353-355-211900-
COASTAL MARINE OBSERVATIONS


STATION/POSITION TIME  SKY/WX   TEMP    WIND        PRES    VSBY  WAVE
                                AIR SEA DIR/SP/G                  HT/PER
                 (UTC)          (F)     (DEG/KT/KT) (MB)    (MI)  (FT/S)
NY HARB ENTRANCE 1800            35 45  320/ 10/ 14 1026.0          1/10
4S FIRE IS       1800               45                N/A           1/11
20S FIRE ISLAND  1700            38 49              1025.9          1/10
23SW MTP         1800                                 N/A           3/ 5
HUDSON CANYON    1800            40 55  300/ 12/ 14 1024.3          2/10
EXECUTION ROCKS  1800            35 41  340/  8/ 10   N/A
WESTERN LI SOUND 1700            34     330/  6/ 10   N/A           0
CENTRAL LI SOUND 1700            35 44  330/ 10/ 14   N/A           1/ 2
EASTERN LI SOUND NOT AVBL
ROBBINS REEF     1800            33     230/  5/  8 1024.7
$$


>>>>>>>>>>>>>>>>>>>>>>>>>>>> KEY <<<<<<<<<<<<<<<<<<<<<<<<<<<
>                                                          <
>     SKY/WX - SKY CONDITION/PRESENT WEATHER               <
>     TMP    - TEMPERATURE IN FAHRENHEIT                   <
>     DP     - DEWPOINT IN FAHRENHEIT                      <
>     RH     - RELATIVE HUMIDITY IN PERCENT                <
>     WIND   - DIRECTION AND SPEED IN MPH                  <
>     PRES   - MEAN SEA LEVEL PRESSURE IN INCHES OF HG     <
>     WCI    - WIND CHILL INDEX                            <
>     VSB    - VISIBILITY IN MILES                         <
>     HX     - HEAT INDEX                                  <
>     TC     - TEMPERATURE IN CELSIUS                      <
>     VRB    - VARIABLE WIND DIRECTION                     <
>                                                          <
>>>>>>>>>>>>>>>>>>>>>>>>>>>> KEY <<<<<<<<<<<<<<<<<<<<<<<<<<<




USA.gov is the U.S. government's official web portal to all federal, state and local government web resources and services.